Year,Month,Day,Hour,Minute,Value (Times are PST for temperature in C)
2017,08,15,00,00,14.30
2017,08,15,00,01,14.20
2017,08,15,00,02,14.20
2017,08,15,00,03,14.20
2017,08,15,00,04,14.20
2017,08,15,00,05,14.20
2017,08,15,00,06,14.10
2017,08,15,00,07,14.10
2017,08,15,00,08,14.10
2017,08,15,00,09,14.10
2017,08,15,00,10,14.10
2017,08,15,00,11,14.10
2017,08,15,00,12,14.10
2017,08,15,00,13,14.00
2017,08,15,00,14,14.00
2017,08,15,00,15,14.00
2017,08,15,00,16,14.00
2017,08,15,00,17,14.00
2017,08,15,00,18,14.00
2017,08,15,00,19,13.90
2017,08,15,00,20,13.90
2017,08,15,00,21,13.90
2017,08,15,00,22,13.90
2017,08,15,00,23,13.90
2017,08,15,00,24,13.90
2017,08,15,00,25,13.90
2017,08,15,00,26,13.90
2017,08,15,00,27,13.90
2017,08,15,00,28,13.80
2017,08,15,00,29,13.80
2017,08,15,00,30,13.80
2017,08,15,00,31,13.80
2017,08,15,00,32,13.80
2017,08,15,00,33,13.70
2017,08,15,00,34,13.70
2017,08,15,00,35,13.70
2017,08,15,00,36,13.70
2017,08,15,00,37,13.70
2017,08,15,00,38,13.70
2017,08,15,00,39,13.70
2017,08,15,00,40,13.70
2017,08,15,00,41,13.70
2017,08,15,00,42,13.70
2017,08,15,00,43,13.70
2017,08,15,00,44,13.70
2017,08,15,00,45,13.70
2017,08,15,00,46,13.70
2017,08,15,00,47,13.70
2017,08,15,00,48,13.70
2017,08,15,00,49,13.70
2017,08,15,00,50,13.70
2017,08,15,00,51,13.70
2017,08,15,00,52,13.70
2017,08,15,00,53,13.70
2017,08,15,00,54,13.60
2017,08,15,00,55,13.60
2017,08,15,00,56,13.60
2017,08,15,00,57,13.60
2017,08,15,00,58,13.60
2017,08,15,00,59,13.60
2017,08,15,01,00,13.60
2017,08,15,01,01,13.60
2017,08,15,01,02,13.50
2017,08,15,01,03,13.50
2017,08,15,01,04,13.50
2017,08,15,01,05,13.40
2017,08,15,01,06,13.40
2017,08,15,01,07,13.40
2017,08,15,01,08,13.40
2017,08,15,01,09,13.40
2017,08,15,01,10,13.40
2017,08,15,01,11,13.40
2017,08,15,01,12,13.30
2017,08,15,01,13,13.30
2017,08,15,01,14,13.30
2017,08,15,01,15,13.30
2017,08,15,01,16,13.30
2017,08,15,01,17,13.30
2017,08,15,01,18,13.30
2017,08,15,01,19,13.30
2017,08,15,01,20,13.30
2017,08,15,01,21,13.30
2017,08,15,01,22,13.30
2017,08,15,01,23,13.30
2017,08,15,01,24,13.30
2017,08,15,01,25,13.30
2017,08,15,01,26,13.30
2017,08,15,01,27,13.30
2017,08,15,01,28,13.30
2017,08,15,01,29,13.30
2017,08,15,01,30,13.30
2017,08,15,01,31,13.20
2017,08,15,01,32,13.20
2017,08,15,01,33,13.20
2017,08,15,01,34,13.10
2017,08,15,01,35,13.10
2017,08,15,01,36,13.10
2017,08,15,01,37,13.10
2017,08,15,01,38,13.10
2017,08,15,01,39,13.00
2017,08,15,01,40,13.00
2017,08,15,01,41,13.00
2017,08,15,01,42,13.00
2017,08,15,01,43,13.00
2017,08,15,01,44,13.00
2017,08,15,01,45,13.00
2017,08,15,01,46,13.00
2017,08,15,01,47,13.00
2017,08,15,01,48,13.10
2017,08,15,01,49,13.10
2017,08,15,01,50,13.10
2017,08,15,01,51,13.10
2017,08,15,01,52,13.10
2017,08,15,01,53,13.10
2017,08,15,01,54,13.10
2017,08,15,01,55,13.10
2017,08,15,01,56,13.10
2017,08,15,01,57,13.10
2017,08,15,01,58,13.10
2017,08,15,01,59,13.10
2017,08,15,02,00,13.10
2017,08,15,02,01,13.10
2017,08,15,02,02,13.10
2017,08,15,02,03,13.00
2017,08,15,02,04,13.00
2017,08,15,02,05,13.00
2017,08,15,02,06,12.90
2017,08,15,02,07,12.90
2017,08,15,02,08,12.90
2017,08,15,02,09,12.90
2017,08,15,02,10,12.90
2017,08,15,02,11,12.90
2017,08,15,02,12,12.80
2017,08,15,02,13,12.80
2017,08,15,02,14,12.80
2017,08,15,02,15,12.80
2017,08,15,02,16,12.80
2017,08,15,02,17,12.80
2017,08,15,02,18,12.80
2017,08,15,02,19,12.70
2017,08,15,02,20,12.70
2017,08,15,02,21,12.70
2017,08,15,02,22,12.70
2017,08,15,02,23,12.70
2017,08,15,02,24,12.70
2017,08,15,02,25,12.70
2017,08,15,02,26,12.70
2017,08,15,02,27,12.70
2017,08,15,02,28,12.70
2017,08,15,02,29,12.60
2017,08,15,02,30,12.60
2017,08,15,02,31,12.60
2017,08,15,02,32,12.60
2017,08,15,02,33,12.60
2017,08,15,02,34,12.60
2017,08,15,02,35,12.60
2017,08,15,02,36,12.60
2017,08,15,02,37,12.60
2017,08,15,02,38,12.60
2017,08,15,02,39,12.60
2017,08,15,02,40,12.60
2017,08,15,02,41,12.60
2017,08,15,02,42,12.60
2017,08,15,02,43,12.60
2017,08,15,02,44,12.60
2017,08,15,02,45,12.60
2017,08,15,02,46,12.60
2017,08,15,02,47,12.70
2017,08,15,02,48,12.70
2017,08,15,02,49,12.70
2017,08,15,02,50,12.70
2017,08,15,02,51,12.70
2017,08,15,02,52,12.70
2017,08,15,02,53,12.70
2017,08,15,02,54,12.70
2017,08,15,02,55,12.70
2017,08,15,02,56,12.70
2017,08,15,02,57,12.70
2017,08,15,02,58,12.70
2017,08,15,02,59,12.70
2017,08,15,03,00,12.70
2017,08,15,03,01,12.60
2017,08,15,03,02,12.60
2017,08,15,03,03,12.60
2017,08,15,03,04,12.60
2017,08,15,03,05,12.60
2017,08,15,03,06,12.60
2017,08,15,03,07,12.60
2017,08,15,03,08,12.60
2017,08,15,03,09,12.60
2017,08,15,03,10,12.60
2017,08,15,03,11,12.60
2017,08,15,03,12,12.60
2017,08,15,03,13,12.60
2017,08,15,03,14,12.60
2017,08,15,03,15,12.60
2017,08,15,03,16,12.60
2017,08,15,03,17,12.60
2017,08,15,03,18,12.60
2017,08,15,03,19,12.60
2017,08,15,03,20,12.50
2017,08,15,03,21,12.60
2017,08,15,03,22,12.50
2017,08,15,03,23,12.50
2017,08,15,03,24,12.50
2017,08,15,03,25,12.50
2017,08,15,03,26,12.50
2017,08,15,03,27,12.60
2017,08,15,03,28,12.60
2017,08,15,03,29,12.60
2017,08,15,03,30,12.60
2017,08,15,03,31,12.60
2017,08,15,03,32,12.60
2017,08,15,03,33,12.60
2017,08,15,03,34,12.60
2017,08,15,03,35,12.60
2017,08,15,03,36,12.60
2017,08,15,03,37,12.60
2017,08,15,03,38,12.60
2017,08,15,03,39,12.60
2017,08,15,03,40,12.60
2017,08,15,03,41,12.70
2017,08,15,03,42,12.70
2017,08,15,03,43,12.70
2017,08,15,03,44,12.70
2017,08,15,03,45,12.70
2017,08,15,03,46,12.70
2017,08,15,03,47,12.70
2017,08,15,03,48,12.70
2017,08,15,03,49,12.70
2017,08,15,03,50,12.70
2017,08,15,03,51,12.70
2017,08,15,03,52,12.70
2017,08,15,03,53,12.70
2017,08,15,03,54,12.70
2017,08,15,03,55,12.70
2017,08,15,03,56,12.70
2017,08,15,03,57,12.70
2017,08,15,03,58,12.70
2017,08,15,03,59,12.70
2017,08,15,04,00,12.70
2017,08,15,04,01,12.70
2017,08,15,04,02,12.70
2017,08,15,04,03,12.70
2017,08,15,04,04,12.70
2017,08,15,04,05,12.70
2017,08,15,04,06,12.70
2017,08,15,04,07,12.70
2017,08,15,04,08,12.70
2017,08,15,04,09,12.70
2017,08,15,04,10,12.70
2017,08,15,04,11,12.70
2017,08,15,04,12,12.60
2017,08,15,04,13,12.60
2017,08,15,04,14,12.60
2017,08,15,04,15,12.60
2017,08,15,04,16,12.60
2017,08,15,04,17,12.60
2017,08,15,04,18,12.60
2017,08,15,04,19,12.60
2017,08,15,04,20,12.60
2017,08,15,04,21,12.60
2017,08,15,04,22,12.60
2017,08,15,04,23,12.60
2017,08,15,04,24,12.60
2017,08,15,04,25,12.60
2017,08,15,04,26,12.60
2017,08,15,04,27,12.60
2017,08,15,04,28,12.60
2017,08,15,04,29,12.60
2017,08,15,04,30,12.60
2017,08,15,04,31,12.50
2017,08,15,04,32,12.50
2017,08,15,04,33,12.50
2017,08,15,04,34,12.50
2017,08,15,04,35,12.50
2017,08,15,04,36,12.50
2017,08,15,04,37,12.40
2017,08,15,04,38,12.40
2017,08,15,04,39,12.40
2017,08,15,04,40,12.40
2017,08,15,04,41,12.40
2017,08,15,04,42,12.40
2017,08,15,04,43,12.50
2017,08,15,04,44,12.50
2017,08,15,04,45,12.50
2017,08,15,04,46,12.50
2017,08,15,04,47,12.50
2017,08,15,04,48,12.50
2017,08,15,04,49,12.50
2017,08,15,04,50,12.50
2017,08,15,04,51,12.50
2017,08,15,04,52,12.50
2017,08,15,04,53,12.50
2017,08,15,04,54,12.50
2017,08,15,04,55,12.50
2017,08,15,04,56,12.50
2017,08,15,04,57,12.50
2017,08,15,04,58,12.50
2017,08,15,04,59,12.50
2017,08,15,05,00,12.50
2017,08,15,05,01,12.50
2017,08,15,05,02,12.50
2017,08,15,05,03,12.50
2017,08,15,05,04,12.50
2017,08,15,05,05,12.50
2017,08,15,05,06,12.50
2017,08,15,05,07,12.50
2017,08,15,05,08,12.50
2017,08,15,05,09,12.50
2017,08,15,05,10,12.50
2017,08,15,05,11,12.50
2017,08,15,05,12,12.50
2017,08,15,05,13,12.40
2017,08,15,05,14,12.40
2017,08,15,05,15,12.40
2017,08,15,05,16,12.40
2017,08,15,05,17,12.40
2017,08,15,05,18,12.40
2017,08,15,05,19,12.40
2017,08,15,05,20,12.40
2017,08,15,05,21,12.40
2017,08,15,05,22,12.40
2017,08,15,05,23,12.40
2017,08,15,05,24,12.40
2017,08,15,05,25,12.40
2017,08,15,05,26,12.40
2017,08,15,05,27,12.40
2017,08,15,05,28,12.30
2017,08,15,05,29,12.30
2017,08,15,05,30,12.30
2017,08,15,05,31,12.30
2017,08,15,05,32,12.30
2017,08,15,05,33,12.30
2017,08,15,05,34,12.30
2017,08,15,05,35,12.30
2017,08,15,05,36,12.30
2017,08,15,05,37,12.30
2017,08,15,05,38,12.30
2017,08,15,05,39,12.30
2017,08,15,05,40,12.30
2017,08,15,05,41,12.30
2017,08,15,05,42,12.30
2017,08,15,05,43,12.30
2017,08,15,05,44,12.30
2017,08,15,05,45,12.40
2017,08,15,05,46,12.40
2017,08,15,05,47,12.40
2017,08,15,05,48,12.40
2017,08,15,05,49,12.40
2017,08,15,05,50,12.40
2017,08,15,05,51,12.50
2017,08,15,05,52,12.50
2017,08,15,05,53,12.60
2017,08,15,05,54,12.60
2017,08,15,05,55,12.60
2017,08,15,05,56,12.70
2017,08,15,05,57,12.70
2017,08,15,05,58,12.70
2017,08,15,05,59,12.70
2017,08,15,06,00,12.80
2017,08,15,06,01,12.80
2017,08,15,06,02,12.80
2017,08,15,06,03,12.80
2017,08,15,06,04,12.80
2017,08,15,06,05,12.90
2017,08,15,06,06,12.90
2017,08,15,06,07,12.90
2017,08,15,06,08,12.90
2017,08,15,06,09,12.90
2017,08,15,06,10,12.90
2017,08,15,06,11,12.90
2017,08,15,06,12,12.90
2017,08,15,06,13,12.90
2017,08,15,06,14,13.00
2017,08,15,06,15,13.00
2017,08,15,06,16,13.00
2017,08,15,06,17,13.00
2017,08,15,06,18,13.00
2017,08,15,06,19,13.00
2017,08,15,06,20,13.00
2017,08,15,06,21,13.00
2017,08,15,06,22,13.00
2017,08,15,06,23,13.00
2017,08,15,06,24,13.00
2017,08,15,06,25,13.00
2017,08,15,06,26,13.00
2017,08,15,06,27,13.00
2017,08,15,06,28,13.10
2017,08,15,06,29,13.10
2017,08,15,06,30,13.10
2017,08,15,06,31,13.10
2017,08,15,06,32,13.10
2017,08,15,06,33,13.10
2017,08,15,06,34,13.00
2017,08,15,06,35,13.00
2017,08,15,06,36,13.00
2017,08,15,06,37,13.10
2017,08,15,06,38,13.10
2017,08,15,06,39,13.10
2017,08,15,06,40,13.10
2017,08,15,06,41,13.10
2017,08,15,06,42,13.20
2017,08,15,06,43,13.20
2017,08,15,06,44,13.20
2017,08,15,06,45,13.30
2017,08,15,06,46,13.30
2017,08,15,06,47,13.30
2017,08,15,06,48,13.40
2017,08,15,06,49,13.40
2017,08,15,06,50,13.40
2017,08,15,06,51,13.50
2017,08,15,06,52,13.50
2017,08,15,06,53,13.60
2017,08,15,06,54,13.60
2017,08,15,06,55,13.60
2017,08,15,06,56,13.70
2017,08,15,06,57,13.70
2017,08,15,06,58,13.80
2017,08,15,06,59,13.80
2017,08,15,07,00,13.90
2017,08,15,07,01,13.90
2017,08,15,07,02,14.00
2017,08,15,07,03,14.10
2017,08,15,07,04,14.20
2017,08,15,07,05,14.30
2017,08,15,07,06,14.30
2017,08,15,07,07,14.40
2017,08,15,07,08,14.50
2017,08,15,07,09,14.60
2017,08,15,07,10,14.60
2017,08,15,07,11,14.70
2017,08,15,07,12,14.80
2017,08,15,07,13,14.80
2017,08,15,07,14,14.90
2017,08,15,07,15,14.90
2017,08,15,07,16,14.90
2017,08,15,07,17,15.00
2017,08,15,07,18,15.00
2017,08,15,07,19,15.00
2017,08,15,07,20,15.10
2017,08,15,07,21,15.10
2017,08,15,07,22,15.10
2017,08,15,07,23,15.10
2017,08,15,07,24,15.10
2017,08,15,07,25,15.10
2017,08,15,07,26,15.10
2017,08,15,07,27,15.10
2017,08,15,07,28,15.10
2017,08,15,07,29,15.10
2017,08,15,07,30,15.20
2017,08,15,07,31,15.20
2017,08,15,07,32,15.20
2017,08,15,07,33,15.20
2017,08,15,07,34,15.20
2017,08,15,07,35,15.30
2017,08,15,07,36,15.30
2017,08,15,07,37,15.30
2017,08,15,07,38,15.30
2017,08,15,07,39,15.30
2017,08,15,07,40,15.40
2017,08,15,07,41,15.40
2017,08,15,07,42,15.40
2017,08,15,07,43,15.40
2017,08,15,07,44,15.50
2017,08,15,07,45,15.50
2017,08,15,07,46,15.50
2017,08,15,07,47,15.50
2017,08,15,07,48,15.50
2017,08,15,07,49,15.50
2017,08,15,07,50,15.60
2017,08,15,07,51,15.60
2017,08,15,07,52,15.60
2017,08,15,07,53,15.60
2017,08,15,07,54,15.70
2017,08,15,07,55,15.70
2017,08,15,07,56,15.70
2017,08,15,07,57,15.70
2017,08,15,07,58,15.80
2017,08,15,07,59,15.80
2017,08,15,08,00,15.80
2017,08,15,08,01,15.90
2017,08,15,08,02,15.90
2017,08,15,08,03,15.90
2017,08,15,08,04,16.00
2017,08,15,08,05,16.00
2017,08,15,08,06,16.00
2017,08,15,08,07,16.00
2017,08,15,08,08,16.00
2017,08,15,08,09,16.00
2017,08,15,08,10,16.10
2017,08,15,08,11,16.10
2017,08,15,08,12,16.10
2017,08,15,08,13,16.10
2017,08,15,08,14,16.10
2017,08,15,08,15,16.20
2017,08,15,08,16,16.20
2017,08,15,08,17,16.20
2017,08,15,08,18,16.20
2017,08,15,08,19,16.20
2017,08,15,08,20,16.20
2017,08,15,08,21,16.20
2017,08,15,08,22,16.20
2017,08,15,08,23,16.20
2017,08,15,08,24,16.30
2017,08,15,08,25,16.30
2017,08,15,08,26,16.30
2017,08,15,08,27,16.30
2017,08,15,08,28,16.30
2017,08,15,08,29,16.30
2017,08,15,08,30,16.30
2017,08,15,08,31,16.40
2017,08,15,08,32,16.40
2017,08,15,08,33,16.40
2017,08,15,08,34,16.40
2017,08,15,08,35,16.40
2017,08,15,08,36,16.40
2017,08,15,08,37,16.40
2017,08,15,08,38,16.50
2017,08,15,08,39,16.50
2017,08,15,08,40,16.50
2017,08,15,08,41,16.50
2017,08,15,08,42,16.60
2017,08,15,08,43,16.60
2017,08,15,08,44,16.60
2017,08,15,08,45,16.60
2017,08,15,08,46,16.60
2017,08,15,08,47,16.60
2017,08,15,08,48,16.60
2017,08,15,08,49,16.60
2017,08,15,08,50,16.60
2017,08,15,08,51,16.60
2017,08,15,08,52,16.70
2017,08,15,08,53,16.70
2017,08,15,08,54,16.70
2017,08,15,08,55,16.70
2017,08,15,08,56,16.70
2017,08,15,08,57,16.80
2017,08,15,08,58,16.80
2017,08,15,08,59,16.80
2017,08,15,09,00,16.80
2017,08,15,09,01,16.80
2017,08,15,09,02,16.80
2017,08,15,09,03,16.80
2017,08,15,09,04,16.90
2017,08,15,09,05,16.90
2017,08,15,09,06,16.90
2017,08,15,09,07,16.90
2017,08,15,09,08,16.90
2017,08,15,09,09,16.90
2017,08,15,09,10,16.90
2017,08,15,09,11,16.90
2017,08,15,09,12,16.90
2017,08,15,09,13,17.00
2017,08,15,09,14,17.00
2017,08,15,09,15,17.00
2017,08,15,09,16,17.00
2017,08,15,09,17,17.10
2017,08,15,09,18,17.10
2017,08,15,09,19,17.10
2017,08,15,09,20,17.10
2017,08,15,09,21,17.10
2017,08,15,09,22,17.10
2017,08,15,09,23,17.10
2017,08,15,09,24,17.20
2017,08,15,09,25,17.20
2017,08,15,09,26,17.20
2017,08,15,09,27,17.30
2017,08,15,09,28,17.30
2017,08,15,09,29,17.30
2017,08,15,09,30,17.30
2017,08,15,09,31,17.30
2017,08,15,09,32,17.40
2017,08,15,09,33,17.40
2017,08,15,09,34,17.40
2017,08,15,09,35,17.40
2017,08,15,09,36,17.40
2017,08,15,09,37,17.40
2017,08,15,09,38,17.40
2017,08,15,09,39,17.40
2017,08,15,09,40,17.50
2017,08,15,09,41,17.50
2017,08,15,09,42,17.60
2017,08,15,09,43,17.60
2017,08,15,09,44,17.70
2017,08,15,09,45,17.70
2017,08,15,09,46,17.70
2017,08,15,09,47,17.80
2017,08,15,09,48,17.80
2017,08,15,09,49,17.90
2017,08,15,09,50,17.90
2017,08,15,09,51,18.00
2017,08,15,09,52,18.00
2017,08,15,09,53,18.00
2017,08,15,09,54,18.10
2017,08,15,09,55,18.10
2017,08,15,09,56,18.10
2017,08,15,09,57,18.10
2017,08,15,09,58,18.20
2017,08,15,09,59,18.20
2017,08,15,10,00,18.20
2017,08,15,10,01,18.20
2017,08,15,10,02,18.30
2017,08,15,10,03,18.30
2017,08,15,10,04,18.30
2017,08,15,10,05,18.30
2017,08,15,10,06,18.30
2017,08,15,10,07,18.30
2017,08,15,10,08,18.30
2017,08,15,10,09,18.30
2017,08,15,10,10,18.30
2017,08,15,10,11,18.40
2017,08,15,10,12,18.40
2017,08,15,10,13,18.50
2017,08,15,10,14,18.50
2017,08,15,10,15,18.60
2017,08,15,10,16,18.50
2017,08,15,10,17,18.50
2017,08,15,10,18,18.40
2017,08,15,10,19,18.40
2017,08,15,10,20,18.40
2017,08,15,10,21,18.40
2017,08,15,10,22,18.40
2017,08,15,10,23,18.40
2017,08,15,10,24,18.40
2017,08,15,10,25,18.40
2017,08,15,10,26,18.40
2017,08,15,10,27,18.30
2017,08,15,10,28,18.30
2017,08,15,10,29,18.40
2017,08,15,10,30,18.40
2017,08,15,10,31,18.40
2017,08,15,10,32,18.50
2017,08,15,10,33,18.50
2017,08,15,10,34,18.60
2017,08,15,10,35,18.60
2017,08,15,10,36,18.60
2017,08,15,10,37,18.70
2017,08,15,10,38,18.70
2017,08,15,10,39,18.70
2017,08,15,10,40,18.70
2017,08,15,10,41,18.70
2017,08,15,10,42,18.70
2017,08,15,10,43,18.70
2017,08,15,10,44,18.70
2017,08,15,10,45,18.80
2017,08,15,10,46,18.80
2017,08,15,10,47,18.80
2017,08,15,10,48,18.90
2017,08,15,10,49,19.00
2017,08,15,10,50,19.00
2017,08,15,10,51,19.10
2017,08,15,10,52,19.10
2017,08,15,10,53,19.10
2017,08,15,10,54,19.00
2017,08,15,10,55,18.90
2017,08,15,10,56,18.90
2017,08,15,10,57,18.80
2017,08,15,10,58,18.80
2017,08,15,10,59,18.80
2017,08,15,11,00,18.80
2017,08,15,11,01,18.80
2017,08,15,11,02,18.80
2017,08,15,11,03,18.90
2017,08,15,11,04,18.90
2017,08,15,11,05,19.00
2017,08,15,11,06,19.10
2017,08,15,11,07,19.20
2017,08,15,11,08,19.30
2017,08,15,11,09,19.30
2017,08,15,11,10,19.40
2017,08,15,11,11,19.50
2017,08,15,11,12,19.60
2017,08,15,11,13,19.60
2017,08,15,11,14,19.60
2017,08,15,11,15,19.60
2017,08,15,11,16,19.60
2017,08,15,11,17,19.60
2017,08,15,11,18,19.60
2017,08,15,11,19,19.70
2017,08,15,11,20,19.80
2017,08,15,11,21,19.90
2017,08,15,11,22,20.00
2017,08,15,11,23,20.00
2017,08,15,11,24,20.10
2017,08,15,11,25,20.10
2017,08,15,11,26,20.20
2017,08,15,11,27,20.30
2017,08,15,11,28,20.40
2017,08,15,11,29,20.40
2017,08,15,11,30,20.40
2017,08,15,11,31,20.50
2017,08,15,11,32,20.50
2017,08,15,11,33,20.60
2017,08,15,11,34,20.60
2017,08,15,11,35,20.60
2017,08,15,11,36,20.60
2017,08,15,11,37,20.60
2017,08,15,11,38,20.60
2017,08,15,11,39,20.60
2017,08,15,11,40,20.70
2017,08,15,11,41,20.70
2017,08,15,11,42,20.80
2017,08,15,11,43,20.80
2017,08,15,11,44,20.80
2017,08,15,11,45,20.80
2017,08,15,11,46,20.80
2017,08,15,11,47,20.80
2017,08,15,11,48,20.80
2017,08,15,11,49,20.90
2017,08,15,11,50,20.90
2017,08,15,11,51,20.80
2017,08,15,11,52,20.70
2017,08,15,11,53,20.50
2017,08,15,11,54,20.40
2017,08,15,11,55,20.30
2017,08,15,11,56,20.20
2017,08,15,11,57,20.20
2017,08,15,11,58,20.20
2017,08,15,11,59,20.10
2017,08,15,12,00,20.10
2017,08,15,12,01,20.10
2017,08,15,12,02,20.20
2017,08,15,12,03,20.20
2017,08,15,12,04,20.20
2017,08,15,12,05,20.20
2017,08,15,12,06,20.20
2017,08,15,12,07,20.20
2017,08,15,12,08,20.20
2017,08,15,12,09,20.20
2017,08,15,12,10,20.20
2017,08,15,12,11,20.10
2017,08,15,12,12,20.10
2017,08,15,12,13,20.10
2017,08,15,12,14,20.10
2017,08,15,12,15,20.00
2017,08,15,12,16,20.00
2017,08,15,12,17,20.00
2017,08,15,12,18,20.00
2017,08,15,12,19,20.00
2017,08,15,12,20,20.10
2017,08,15,12,21,20.10
2017,08,15,12,22,20.10
2017,08,15,12,23,20.10
2017,08,15,12,24,20.20
2017,08,15,12,25,20.20
2017,08,15,12,26,20.20
2017,08,15,12,27,20.30
2017,08,15,12,28,20.40
2017,08,15,12,29,20.50
2017,08,15,12,30,20.50
2017,08,15,12,31,20.50
2017,08,15,12,32,20.60
2017,08,15,12,33,20.60
2017,08,15,12,34,20.70
2017,08,15,12,35,20.70
2017,08,15,12,36,20.70
2017,08,15,12,37,20.80
2017,08,15,12,38,20.90
2017,08,15,12,39,21.00
2017,08,15,12,40,21.10
2017,08,15,12,41,21.10
2017,08,15,12,42,21.10
2017,08,15,12,43,21.20
2017,08,15,12,44,21.20
2017,08,15,12,45,21.30
2017,08,15,12,46,21.40
2017,08,15,12,47,21.40
2017,08,15,12,48,21.40
2017,08,15,12,49,21.40
2017,08,15,12,50,21.40
2017,08,15,12,51,21.40
2017,08,15,12,52,21.50
2017,08,15,12,53,21.70
2017,08,15,12,54,21.90
2017,08,15,12,55,22.00
2017,08,15,12,56,22.20
2017,08,15,12,57,22.20
2017,08,15,12,58,22.30
2017,08,15,12,59,22.30
2017,08,15,13,00,22.30
2017,08,15,13,01,22.30
2017,08,15,13,02,22.30
2017,08,15,13,03,22.20
2017,08,15,13,04,22.20
2017,08,15,13,05,22.20
2017,08,15,13,06,22.30
2017,08,15,13,07,22.50
2017,08,15,13,08,22.60
2017,08,15,13,09,22.80
2017,08,15,13,10,22.90
2017,08,15,13,11,23.10
2017,08,15,13,12,23.20
2017,08,15,13,13,23.20
2017,08,15,13,14,23.20
2017,08,15,13,15,23.30
2017,08,15,13,16,23.30
2017,08,15,13,17,23.30
2017,08,15,13,18,23.20
2017,08,15,13,19,23.10
2017,08,15,13,20,23.00
2017,08,15,13,21,23.00
2017,08,15,13,22,23.00
2017,08,15,13,23,23.10
2017,08,15,13,24,23.00
2017,08,15,13,25,23.00
2017,08,15,13,26,23.00
2017,08,15,13,27,23.00
2017,08,15,13,28,23.00
2017,08,15,13,29,23.00
2017,08,15,13,30,23.00
2017,08,15,13,31,23.00
2017,08,15,13,32,23.00
2017,08,15,13,33,23.10
2017,08,15,13,34,23.20
2017,08,15,13,35,23.30
2017,08,15,13,36,23.30
2017,08,15,13,37,23.40
2017,08,15,13,38,23.40
2017,08,15,13,39,23.40
2017,08,15,13,40,23.50
2017,08,15,13,41,23.50
2017,08,15,13,42,23.50
2017,08,15,13,43,23.60
2017,08,15,13,44,23.60
2017,08,15,13,45,23.60
2017,08,15,13,46,23.60
2017,08,15,13,47,23.70
2017,08,15,13,48,23.80
2017,08,15,13,49,23.80
2017,08,15,13,50,23.80
2017,08,15,13,51,23.80
2017,08,15,13,52,23.80
2017,08,15,13,53,23.80
2017,08,15,13,54,23.70
2017,08,15,13,55,23.70
2017,08,15,13,56,23.70
2017,08,15,13,57,23.70
2017,08,15,13,58,23.80
2017,08,15,13,59,23.80
2017,08,15,14,00,23.80
2017,08,15,14,01,23.70
2017,08,15,14,02,23.70
2017,08,15,14,03,23.70
2017,08,15,14,04,23.70
2017,08,15,14,05,23.80
2017,08,15,14,06,23.80
2017,08,15,14,07,23.80
2017,08,15,14,08,23.90
2017,08,15,14,09,24.00
2017,08,15,14,10,24.00
2017,08,15,14,11,23.90
2017,08,15,14,12,24.00
2017,08,15,14,13,24.00
2017,08,15,14,14,24.10
2017,08,15,14,15,24.10
2017,08,15,14,16,24.10
2017,08,15,14,17,23.90
2017,08,15,14,18,23.80
2017,08,15,14,19,23.60
2017,08,15,14,20,23.40
2017,08,15,14,21,23.30
2017,08,15,14,22,23.20
2017,08,15,14,23,23.20
2017,08,15,14,24,23.00
2017,08,15,14,25,22.90
2017,08,15,14,26,22.70
2017,08,15,14,27,22.60
2017,08,15,14,28,22.50
2017,08,15,14,29,22.50
2017,08,15,14,30,22.50
2017,08,15,14,31,22.40
2017,08,15,14,32,22.40
2017,08,15,14,33,22.30
2017,08,15,14,34,22.30
2017,08,15,14,35,22.30
2017,08,15,14,36,22.20
2017,08,15,14,37,22.20
2017,08,15,14,38,22.20
2017,08,15,14,39,22.20
2017,08,15,14,40,22.20
2017,08,15,14,41,22.10
2017,08,15,14,42,22.10
2017,08,15,14,43,22.10
2017,08,15,14,44,22.10
2017,08,15,14,45,22.10
2017,08,15,14,46,22.20
2017,08,15,14,47,22.30
2017,08,15,14,48,22.30
2017,08,15,14,49,22.20
2017,08,15,14,50,22.20
2017,08,15,14,51,22.20
2017,08,15,14,52,22.20
2017,08,15,14,53,22.20
2017,08,15,14,54,22.20
2017,08,15,14,55,22.30
2017,08,15,14,56,22.30
2017,08,15,14,57,22.40
2017,08,15,14,58,22.40
2017,08,15,14,59,22.60
2017,08,15,15,00,22.60
2017,08,15,15,01,22.60
2017,08,15,15,02,22.50
2017,08,15,15,03,22.40
2017,08,15,15,04,22.40
2017,08,15,15,05,22.50
2017,08,15,15,06,22.50
2017,08,15,15,07,22.50
2017,08,15,15,08,22.40
2017,08,15,15,09,22.40
2017,08,15,15,10,22.40
2017,08,15,15,11,22.50
2017,08,15,15,12,22.60
2017,08,15,15,13,22.70
2017,08,15,15,14,22.80
2017,08,15,15,15,22.80
2017,08,15,15,16,22.80
2017,08,15,15,17,22.70
2017,08,15,15,18,22.80
2017,08,15,15,19,22.80
2017,08,15,15,20,22.80
2017,08,15,15,21,22.80
2017,08,15,15,22,22.80
2017,08,15,15,23,22.80
2017,08,15,15,24,22.80
2017,08,15,15,25,22.70
2017,08,15,15,26,22.60
2017,08,15,15,27,22.50
2017,08,15,15,28,22.40
2017,08,15,15,29,22.50
2017,08,15,15,30,22.50
2017,08,15,15,31,22.60
2017,08,15,15,32,22.70
2017,08,15,15,33,22.80
2017,08,15,15,34,23.00
2017,08,15,15,35,23.10
2017,08,15,15,36,23.20
2017,08,15,15,37,23.20
2017,08,15,15,38,23.30
2017,08,15,15,39,23.30
2017,08,15,15,40,23.40
2017,08,15,15,41,23.50
2017,08,15,15,42,23.60
2017,08,15,15,43,23.60
2017,08,15,15,44,23.70
2017,08,15,15,45,23.70
2017,08,15,15,46,23.70
2017,08,15,15,47,23.70
2017,08,15,15,48,23.70
2017,08,15,15,49,23.80
2017,08,15,15,50,23.90
2017,08,15,15,51,23.90
2017,08,15,15,52,23.80
2017,08,15,15,53,23.70
2017,08,15,15,54,23.60
2017,08,15,15,55,23.40
2017,08,15,15,56,23.30
2017,08,15,15,57,23.20
2017,08,15,15,58,23.20
2017,08,15,15,59,23.20
2017,08,15,16,00,23.30
2017,08,15,16,01,23.30
2017,08,15,16,02,23.30
2017,08,15,16,03,23.30
2017,08,15,16,04,23.30
2017,08,15,16,05,23.30
2017,08,15,16,06,23.30
2017,08,15,16,07,23.30
2017,08,15,16,08,23.20
2017,08,15,16,09,23.20
2017,08,15,16,10,23.10
2017,08,15,16,11,23.10
2017,08,15,16,12,23.10
2017,08,15,16,13,23.10
2017,08,15,16,14,23.10
2017,08,15,16,15,23.10
2017,08,15,16,16,23.10
2017,08,15,16,17,23.10
2017,08,15,16,18,23.10
2017,08,15,16,19,23.20
2017,08,15,16,20,23.20
2017,08,15,16,21,23.30
2017,08,15,16,22,23.50
2017,08,15,16,23,23.60
2017,08,15,16,24,23.70
2017,08,15,16,25,23.80
2017,08,15,16,26,23.90
2017,08,15,16,27,23.90
2017,08,15,16,28,23.90
2017,08,15,16,29,23.90
2017,08,15,16,30,23.80
2017,08,15,16,31,23.80
2017,08,15,16,32,23.80
2017,08,15,16,33,23.80
2017,08,15,16,34,23.80
2017,08,15,16,35,23.70
2017,08,15,16,36,23.70
2017,08,15,16,37,23.70
2017,08,15,16,38,23.60
2017,08,15,16,39,23.60
2017,08,15,16,40,23.50
2017,08,15,16,41,23.50
2017,08,15,16,42,23.50
2017,08,15,16,43,23.60
2017,08,15,16,44,23.60
2017,08,15,16,45,23.60
2017,08,15,16,46,23.70
2017,08,15,16,47,23.70
2017,08,15,16,48,23.70
2017,08,15,16,49,23.80
2017,08,15,16,50,23.80
2017,08,15,16,51,23.80
2017,08,15,16,52,23.80
2017,08,15,16,53,23.80
2017,08,15,16,54,23.80
2017,08,15,16,55,23.80
2017,08,15,16,56,23.80
2017,08,15,16,57,23.70
2017,08,15,16,58,23.70
2017,08,15,16,59,23.60
2017,08,15,17,00,23.50
2017,08,15,17,01,23.40
2017,08,15,17,02,23.40
2017,08,15,17,03,23.30
2017,08,15,17,04,23.30
2017,08,15,17,05,23.20
2017,08,15,17,06,23.20
2017,08,15,17,07,23.20
2017,08,15,17,08,23.20
2017,08,15,17,09,23.30
2017,08,15,17,10,23.30
2017,08,15,17,11,23.30
2017,08,15,17,12,23.40
2017,08,15,17,13,23.40
2017,08,15,17,14,23.50
2017,08,15,17,15,23.40
2017,08,15,17,16,23.40
2017,08,15,17,17,23.40
2017,08,15,17,18,23.30
2017,08,15,17,19,23.20